Theta_e
331 330 330 328 327 326 324 324 325 325 328 330 330 330 330 329 328 327 327 327 327 327 326 324 322 322 321 322 326 327 325 328 329 327 326 326 325 324 324 324 325 326
331 329 328 327 327 326 324 325 327 328 329 330 329 329 329 327 328 328 326 326 326 324 323 322 319 320 321 322 326 326 323 325 327 327 327 326 325 325 324 324 325 326
331 329 327 327 327 326 325 326 328 329 329 329 329 329 328 327 328 327 324 325 324 320 320 321 321 323 324 323 326 325 323 326 326 325 327 326 324 325 325 326 327 326
330 328 327 327 326 325 326 327 327 328 328 328 328 328 327 327 327 325 323 324 321 317 319 321 322 325 324 323 325 325 325 326 323 322 324 324 324 325 325 327 328 327
329 327 327 326 323 323 324 326 327 328 327 328 328 327 325 325 325 323 321 320 317 315 317 320 323 325 323 323 325 324 324 325 323 323 324 322 321 323 325 327 328 328
327 326 325 324 322 322 322 325 327 327 327 328 327 325 323 324 325 324 320 317 315 315 316 319 322 322 322 323 324 323 323 323 323 323 323 322 321 322 324 326 327 327
327 326 325 323 322 321 321 323 327 326 325 326 325 324 324 326 327 325 321 317 316 319 321 320 319 320 322 322 321 321 322 321 320 320 322 323 323 323 323 324 325 327
326 326 326 324 323 322 322 325 326 325 323 323 324 325 326 327 327 324 321 319 320 321 323 321 320 320 320 320 320 320 320 318 318 320 322 322 323 323 322 322 324 327
324 325 326 326 324 324 325 326 326 326 324 323 324 326 326 327 326 322 320 320 320 320 320 320 321 319 319 320 320 318 318 318 320 321 322 322 323 324 323 323 324 325
324 326 326 326 325 325 326 326 325 326 325 325 325 326 326 326 324 322 321 320 319 318 318 319 319 318 319 320 318 317 318 319 321 321 321 322 322 322 323 323 322 322
325 326 326 326 326 326 326 326 326 326 325 325 326 326 326 325 323 321 321 319 317 317 317 319 318 318 319 318 316 318 319 319 320 320 321 322 322 321 322 322 321 321
325 325 325 324 326 327 326 326 326 325 324 324 325 326 325 324 322 322 320 317 316 317 318 318 318 317 318 316 316 318 318 318 320 320 320 321 321 320 320 321 321 321
324 324 323 322 324 326 326 326 325 323 322 323 324 325 325 323 322 321 319 316 316 317 317 317 316 316 316 316 316 318 318 318 319 320 320 320 319 320 320 320 320 321
322 323 323 323 324 325 325 325 325 323 323 322 322 324 324 324 322 320 317 316 316 317 316 316 316 316 316 316 317 317 318 318 318 319 319 318 319 319 318 319 319 319
321 321 323 324 325 325 325 325 324 324 323 322 322 322 322 323 322 319 317 316 316 316 316 316 317 317 317 318 318 319 319 319 319 320 319 319 320 320 319 319 319 319
322 321 322 325 326 325 324 324 324 323 323 323 323 322 320 321 322 319 317 316 316 316 317 317 318 318 318 320 321 321 321 321 321 322 322 322 322 322 321 321 321 320
324 323 323 324 325 325 324 324 323 323 323 322 322 321 320 321 321 319 318 317 316 317 318 318 319 319 319 320 322 322 322 323 323 322 322 322 322 323 323 322 322 321
326 326 325 325 325 324 324 324 323 323 322 322 321 320 320 320 320 319 318 318 317 318 319 319 319 320 320 320 322 323 323 322 323 323 323 322 322 322 321 322 322 321
327 327 327 326 325 324 324 324 323 322 322 322 321 321 320 320 320 319 318 318 318 319 320 319 319 320 320 320 321 322 323 322 322 323 323 322 322 321 321 321 321 321
325 325 325 325 324 324 324 323 321 321 322 322 321 320 320 319 320 320 319 319 319 320 320 320 319 318 318 319 320 321 322 321 321 321 322 322 322 320 320 320 320 320
321 322 322 322 322 323 323 321 318 319 321 320 320 320 319 319 320 320 319 319 320 320 321 321 320 317 315 316 317 318 318 318 317 318 319 320 321 321 320 320 320 320
321 320 320 320 321 322 322 319 316 317 319 319 318 318 317 318 319 320 320 319 319 320 320 320 321 319 317 316 315 314 314 314 314 315 316 317 318 319 319 318 319 319
322 321 320 319 319 321 321 319 317 319 320 318 317 317 316 314 315 317 318 319 320 320 320 319 318 317 316 316 315 314 314 314 314 315 317 317 318 318 318 318 318 319
321 321 321 321 320 320 320 319 319 320 319 317 317 318 316 313 311 311 312 315 317 317 315 314 313 313 313 313 313 314 314 314 315 316 317 317 317 317 318 318 317 317
319 319 320 321 321 321 320 319 319 319 318 317 317 318 317 315 314 313 313 312 312 310 310 310 310 311 311 311 312 314 315 315 315 315 316 317 317 317 318 318 318 318
316 317 317 318 319 320 320 319 319 319 317 316 317 318 318 317 316 316 316 315 312 311 311 313 314 313 314 314 315 315 316 316 316 316 316 317 317 317 318 319 319 318
Wind_Speed
23 23 21 18 17 17 16 16 16 16 14 12 11 11 11 11 11 11 12 12 11 11 9 10 10 9 8 9 9 5 4 6 6 5 6 7 6 7 8 7 7 8
23 22 20 18 17 17 16 16 16 14 13 13 11 11 10 11 13 12 11 11 10 10 8 7 7 7 7 11 10 4 5 8 6 6 7 7 7 8 9 8 8 8
22 21 19 18 18 18 17 16 15 13 14 14 13 12 11 13 14 11 10 10 9 8 9 9 9 9 9 13 9 4 6 9 7 7 8 6 6 7 9 9 9 10
20 19 18 18 18 19 19 17 16 14 13 13 14 14 14 14 14 12 11 9 9 9 11 11 12 10 10 12 9 6 8 7 5 7 8 7 6 6 8 10 10 10
19 19 18 19 19 19 19 17 16 16 14 14 15 15 14 14 13 12 12 10 7 8 11 13 13 11 11 11 8 8 9 6 7 9 6 6 6 6 8 9 10 10
20 19 19 18 17 19 20 17 15 16 17 15 14 13 13 13 12 11 11 9 7 8 11 13 12 11 10 9 9 9 8 6 9 8 5 5 6 7 8 9 10 10
20 20 19 18 17 20 22 18 13 14 17 16 13 12 13 13 12 11 9 7 7 9 10 11 11 11 11 9 9 9 7 7 9 8 6 6 6 6 7 7 9 10
21 21 21 19 19 20 20 18 13 12 14 14 13 13 14 13 12 11 9 8 9 9 9 10 10 11 11 9 9 9 9 9 10 8 7 7 7 7 6 7 9 9
22 21 20 20 20 20 19 18 15 12 12 12 13 14 14 13 12 11 10 9 10 9 9 9 10 11 11 9 10 10 10 10 9 8 9 9 9 9 8 8 8 8
23 22 21 20 21 21 20 19 17 15 13 13 13 14 15 14 12 11 10 9 10 9 9 9 9 10 10 9 10 11 10 10 9 9 10 10 9 9 9 8 6 7
24 25 23 22 22 21 20 20 18 16 14 14 14 15 15 15 13 11 9 9 9 9 9 9 9 10 9 9 10 11 9 9 10 10 10 9 8 9 8 7 5 6
26 25 23 23 23 20 19 19 18 16 14 14 14 14 14 13 13 12 9 9 10 9 9 9 9 9 9 9 11 11 10 9 10 10 9 9 9 8 7 7 8 8
26 24 22 23 22 19 17 17 16 15 14 14 14 14 13 12 13 13 11 9 10 10 9 10 9 9 9 9 10 11 10 10 11 10 9 9 9 7 6 7 7 8
24 23 22 23 22 20 17 15 15 14 12 12 14 14 13 12 12 13 12 11 11 10 10 10 10 9 10 9 9 10 10 11 11 10 9 10 9 6 7 8 5 5
23 22 22 21 21 21 19 16 17 15 11 11 12 12 13 12 10 13 14 11 11 11 11 11 11 11 11 11 10 10 9 9 10 9 8 9 7 6 7 7 5 4
23 22 23 21 21 21 18 16 17 16 12 12 12 12 13 12 10 12 13 12 11 12 12 12 12 12 12 12 12 11 10 9 9 7 8 8 7 5 6 6 5 6
22 23 24 23 22 21 18 17 17 16 13 12 12 12 13 12 11 12 13 12 12 13 14 14 12 12 13 12 11 12 12 11 9 7 7 7 6 5 5 4 6 9
22 24 24 24 22 22 21 19 19 18 15 14 14 13 12 12 11 11 12 12 11 13 15 16 13 12 14 14 12 12 13 12 10 7 5 5 5 5 5 4 5 6
22 23 23 23 21 21 21 22 21 20 19 18 17 15 15 14 12 11 11 10 10 12 13 15 15 13 14 15 13 12 11 11 9 7 5 5 5 6 6 6 6 6
18 18 17 19 20 20 21 21 21 20 19 19 19 17 16 16 15 15 15 12 11 12 11 11 11 11 12 14 15 13 12 10 9 8 6 5 6 7 7 6 7 8
10 12 12 14 17 19 19 18 17 16 15 15 16 16 17 17 16 16 17 14 12 11 10 8 7 7 8 11 12 11 10 9 9 8 7 6 6 6 6 7 8 9
8 9 11 13 15 17 18 18 18 17 15 15 14 14 15 17 17 16 16 16 13 11 10 9 6 4 5 6 7 8 8 8 8 8 9 8 8 8 8 8 9 10
11 9 10 10 12 14 17 19 18 17 17 16 14 13 13 15 15 14 14 15 15 12 11 9 7 5 4 4 6 7 8 8 8 8 9 9 9 9 9 9 9 11
13 14 14 13 11 12 13 16 16 16 16 15 13 12 13 14 14 13 12 12 13 12 10 9 8 7 7 8 11 11 11 11 10 10 10 10 10 10 10 11 12 14
18 16 15 14 13 12 10 12 13 15 15 13 11 12 13 13 13 12 10 10 11 12 11 11 11 11 12 13 15 14 13 12 12 12 12 12 12 12 11 12 13 13
22 20 19 17 16 13 11 9 7 10 13 11 8 8 10 10 11 11 10 9 10 11 11 10 11 12 13 15 15 14 12 12 12 14 14 13 13 12 11 10 10 10
Wind_Direction
188 191 191 192 188 182 178 172 167 169 168 162 162 168 173 169 159 153 153 154 162 166 166 172 172 172 174 153 132 143 169 148 143 150 145 143 152 159 159 163 171 171
186 189 190 189 183 179 176 169 168 170 159 151 161 172 172 158 155 166 163 155 167 171 165 169 156 144 137 123 122 144 135 124 126 122 122 130 138 144 151 154 158 153
182 181 183 183 180 178 173 167 168 165 153 150 164 174 170 161 165 170 154 154 178 172 161 158 135 127 128 123 129 148 118 119 130 125 121 117 112 126 142 146 146 146
173 170 171 174 176 176 171 167 164 157 151 159 172 177 172 167 168 161 153 175 191 167 161 153 133 133 133 124 132 136 125 136 133 114 118 117 106 114 130 136 139 141
164 163 167 169 171 173 170 164 158 152 156 169 178 179 174 169 166 166 175 191 185 160 156 145 140 147 136 126 142 142 137 140 112 101 107 110 112 122 130 139 143 140
161 162 168 170 170 173 171 165 161 161 166 172 176 176 171 165 165 172 180 183 167 152 149 149 155 154 137 139 152 137 133 139 121 117 115 103 111 124 133 149 148 143
160 159 164 167 168 172 173 172 171 173 176 174 171 171 166 161 166 169 162 157 152 145 149 159 162 153 146 150 145 132 142 147 125 121 128 124 124 128 143 157 147 145
160 158 162 165 165 166 168 168 169 176 179 173 169 170 165 163 170 162 145 143 146 145 152 156 155 157 153 147 144 145 148 131 116 129 149 143 131 125 126 129 133 147
163 157 158 161 159 156 157 161 165 169 171 170 171 169 161 164 170 155 142 149 150 150 153 147 152 156 148 149 157 148 136 128 134 156 151 130 126 125 119 123 138 158
163 153 151 154 153 153 158 164 169 169 167 169 170 163 159 167 165 145 145 155 152 152 148 144 153 150 143 159 160 140 136 144 153 154 135 119 125 129 128 137 152 156
162 155 154 153 152 158 165 165 166 166 165 166 163 158 162 166 154 142 152 158 149 149 148 147 154 147 146 159 151 140 145 146 138 133 126 127 138 138 138 140 121 116
165 160 160 155 151 159 166 166 165 163 159 159 158 157 159 157 148 145 154 152 144 147 150 149 148 144 149 156 148 145 145 141 137 136 141 150 148 143 147 145 133 130
168 163 161 155 154 159 164 165 163 158 157 156 154 155 154 152 152 150 149 147 145 150 153 148 143 144 150 151 148 148 148 151 151 149 154 152 142 142 145 137 142 155
167 163 160 157 157 158 160 162 154 148 157 157 153 158 155 152 155 151 145 145 148 152 152 144 143 150 152 149 153 156 156 159 155 152 157 147 139 157 153 134 140 161
167 164 162 161 161 158 160 163 152 147 160 157 151 158 155 151 158 151 143 146 153 152 151 151 159 165 160 158 162 161 157 158 152 150 157 149 144 162 154 137 143 160
174 171 167 166 164 160 162 163 153 149 160 158 151 155 153 152 161 153 143 149 156 154 158 169 174 174 172 171 168 162 157 156 152 151 158 155 149 150 145 144 166 182
177 177 175 172 167 161 158 158 155 152 155 156 150 151 153 154 161 158 149 152 160 162 171 184 187 179 182 185 175 170 169 160 155 164 174 169 160 159 166 180 200 211
182 180 178 173 169 164 159 158 157 152 150 152 153 153 153 151 156 162 157 154 164 171 178 190 196 187 186 192 185 181 184 175 163 167 177 174 177 188 201 219 231 236
186 185 179 171 167 165 165 164 161 156 156 159 157 154 154 152 153 162 161 158 173 188 194 201 206 200 196 200 198 189 191 187 173 168 172 186 210 223 233 248 262 271
186 187 181 174 173 173 170 166 159 157 162 165 160 155 157 157 157 161 163 164 171 184 197 206 209 208 204 207 210 206 206 208 201 193 193 207 234 251 266 280 288 291
176 185 178 172 179 183 180 174 170 169 171 171 168 164 163 165 168 168 168 172 172 171 180 190 191 195 198 203 214 218 220 228 233 230 232 247 265 272 281 293 300 301
148 169 174 173 178 184 185 184 186 187 186 184 183 180 173 173 179 178 175 181 184 178 178 181 175 178 195 205 220 232 238 245 251 253 256 266 279 286 292 296 299 300
142 141 146 157 171 182 187 188 189 189 188 185 183 177 173 174 181 187 188 191 195 192 188 190 191 201 226 246 253 256 258 258 259 261 265 272 279 286 291 289 285 286
122 127 125 130 142 159 177 185 189 191 187 180 171 165 166 172 180 190 196 197 201 203 202 203 209 216 232 257 269 269 266 266 268 268 269 273 276 280 283 280 279 282
81 94 106 116 123 130 149 168 181 188 183 172 165 165 170 176 182 188 194 197 202 211 219 226 233 236 240 251 262 265 263 264 266 267 269 272 275 279 282 285 290 294
81 77 78 82 88 93 100 113 143 177 180 173 166 173 183 191 190 189 195 202 207 217 231 244 250 250 249 252 254 257 259 262 264 266 270 274 277 280 282 283 290 300